This demonstration page uses our WeatherBlox Daily Observations layout. Learn more.

Left ArrowRight Arrow

44.31136, -96.79839

Hourly Observations for July 11, 2015

Temp ( °F °C ) Dew Point ( °F °C ) Humidity (%) Winds ( mph kmh ) Pressure ( in mb ) Visibility ( mi km ) Precip ( " mm )
12:15 am 00:15 Clear 70 21 63 17 78 78 SSE 12 19 29.94 1014 10 16 0.00 0.00
12:35 am 00:35 Clear 68 20 63 17 83 83 SSE 8 13 29.94 1014 10 16 0.00 0.00
12:55 am 00:55 Clear 68 20 63 17 83 83 SE 10 17 29.91 1013 10 16 0.00 0.00
1:15 am 01:15 Clear 68 20 63 17 83 83 SE 13 20 29.91 1013 10 16 0.00 0.00
1:35 am 01:35 Clear 68 20 63 17 83 83 SE 10 17 29.91 1013 10 16 0.00 0.00
1:55 am 01:55 Clear 66 19 63 17 88 88 SSE 12 19 29.91 1013 10 16 0.00 0.00
2:15 am 02:15 Clear 66 19 63 17 88 88 SSE 10 17 29.91 1013 10 16 0.00 0.00
2:35 am 02:35 Clear 66 19 63 17 88 88 SSE 9 15 29.91 1013 10 16 0.00 0.00
2:55 am 02:55 Clear 66 19 63 17 88 88 SSE 12 19 29.91 1013 10 16 0.00 0.00
3:15 am 03:15 Clear 66 19 63 17 88 88 SSE 12 19 29.91 1013 10 16 0.00 0.00
3:35 am 03:35 Clear 66 19 63 17 88 88 SSE 10 17 29.91 1013 10 16 0.00 0.00
3:55 am 03:55 Clear 66 19 63 17 88 88 SSE 10 17 29.91 1013 10 16 0.00 0.00
4:15 am 04:15 Clear 66 19 63 17 88 88 SSE 9 15 29.91 1013 10 16 0.00 0.00
4:35 am 04:35 Clear 66 19 63 17 88 88 SSE 9 15 29.91 1013 9 14 0.00 0.00
4:55 am 04:55 Clear 66 19 63 17 88 88 SSE 8 13 29.91 1013 8 13 0.00 0.00
5:15 am 05:15 Clear 66 19 63 17 88 88 SSE 7 11 29.88 1012 8 13 0.00 0.00
5:35 am 05:35 Clear 66 19 63 17 88 88 SE 7 11 29.88 1012 8 13 0.00 0.00
5:55 am 05:55 Sunny 64 18 63 17 94 94 SSE 6 9 29.91 1013 5 8 0.00 0.00
6:15 am 06:15 Sunny 64 18 63 17 94 94 SE 8 13 29.91 1013 5 8 0.00 0.00
6:35 am 06:35 Sunny 64 18 63 17 94 94 SE 9 15 29.91 1013 5 8 0.00 0.00
6:55 am 06:55 Partly Cloudy 66 19 63 17 88 88 SSE 12 19 29.91 1013 7 11 0.00 0.00
7:15 am 07:15 Mostly Cloudy 66 19 63 17 88 88 SSE 10 17 29.91 1013 7 11 0.00 0.00
7:35 am 07:35 Cloudy 66 19 63 17 88 88 SE 12 19 29.91 1013 4 6 0.00 0.00
7:55 am 07:55 Cloudy 66 19 64 18 94 94 SSE 8 13 29.91 1013 3 5 0.00 0.00
8:15 am 08:15 Cloudy 66 19 64 18 94 94 SSE 8 13 29.91 1013 2 2 0.00 0.00
8:35 am 08:35 Cloudy 68 20 64 18 88 88 SSE 13 20 29.91 1013 3 4 0.00 0.00
8:55 am 08:55 Cloudy 66 19 64 18 94 94 S 12 19 29.97 1015 2 2 0.00 0.00
9:15 am 09:15 Cloudy 70 21 64 18 83 83 S 12 19 29.94 1014 2 2 0.00 0.00
9:35 am 09:35 Cloudy 70 21 64 18 83 83 SSE 8 13 29.94 1014 3 5 0.05 1.27
9:55 am 09:55 Cloudy 70 21 66 19 88 88 SSE 10 17 29.91 1013 4 6 0.06 1.52
10:15 am 10:15 Cloudy 70 21 66 19 88 88 SSE 12 19 29.91 1013 4 6 0.00 0.00
10:35 am 10:35 Cloudy 72 22 66 19 83 83 SE 12 19 29.91 1013 5 8 0.00 0.00
10:55 am 10:55 Cloudy 72 22 66 19 83 83 SE 13 20 29.91 1013 5 8 0.00 0.00
11:15 am 11:15 Cloudy 72 22 68 20 88 88 SSE 13 20 29.91 1013 8 13 0.00 0.00
11:35 am 11:35 Cloudy 73 23 70 21 89 89 SSE 16 26 29.91 1013 10 16 0.00 0.00
11:55 am 11:55 Cloudy 75 24 70 21 83 83 SSE 15 24 29.88 1012 10 16 0.00 0.00
12:15 pm 12:15 Cloudy 75 24 70 21 83 83 S 17 28 29.88 1012 10 16 0.00 0.00
12:35 pm 12:35 Cloudy 77 25 70 21 79 79 SSE 15 24 29.88 1012 10 16 0.00 0.00
12:55 pm 12:55 Cloudy 77 25 70 21 79 79 S 15 24 29.85 1011 10 16 0.00 0.00
1:15 pm 13:15 Mostly Cloudy 77 25 70 21 79 79 SSE 13 20 29.85 1011 10 16 0.00 0.00
1:35 pm 13:35 Partly Cloudy 79 26 70 21 74 74 S 15 24 29.85 1011 10 16 0.00 0.00
1:55 pm 13:55 Mostly Sunny 81 27 70 21 70 70 S 15 24 29.85 1011 10 16 0.00 0.00
2:15 pm 14:15 Mostly Sunny 81 27 72 22 74 74 S 8 13 29.85 1011 10 16 0.00 0.00
2:35 pm 14:35 Sunny 81 27 72 22 74 74 SSE 12 19 29.85 1011 10 16 0.00 0.00
2:55 pm 14:55 Mostly Sunny 82 28 72 22 70 70 SSE 13 20 29.85 1011 10 16 0.00 0.00
3:15 pm 15:15 Mostly Sunny 84 29 72 22 66 66 SSW 14 22 29.83 1010 10 16 0.00 0.00
3:35 pm 15:35 Mostly Sunny 84 29 72 22 66 66 SSW 14 22 29.83 1010 10 16 0.00 0.00
3:55 pm 15:55 Mostly Sunny 84 29 72 22 66 66 S 16 26 29.83 1010 10 16 0.00 0.00
4:15 pm 16:15 Mostly Sunny 84 29 72 22 66 66 S 14 22 29.83 1010 10 16 0.00 0.00
4:35 pm 16:35 Mostly Cloudy 84 29 73 23 70 70 SSW 13 20 29.83 1010 10 16 0.00 0.00
4:55 pm 16:55 Mostly Sunny 82 28 72 22 70 70 S 12 19 29.85 1011 10 16 0.00 0.00
5:15 pm 17:15 Mostly Sunny 82 28 73 23 74 74 S 14 22 29.83 1010 10 16 0.00 0.00
5:35 pm 17:35 Mostly Sunny 84 29 72 22 66 66 S 12 19 29.80 1009 10 16 0.00 0.00
5:55 pm 17:55 Sunny 84 29 72 22 66 66 S 12 19 29.80 1009 10 16 0.00 0.00
6:15 pm 18:15 Sunny 82 28 72 22 70 70 S 12 19 29.83 1010 10 16 0.00 0.00
6:35 pm 18:35 Mostly Sunny 82 28 72 22 70 70 S 10 17 29.83 1010 10 16 0.00 0.00
6:55 pm 18:55 Partly Cloudy 82 28 72 22 70 70 S 10 17 29.83 1010 10 16 0.00 0.00
7:15 pm 19:15 Sunny 82 28 72 22 70 70 S 14 22 29.83 1010 10 16 0.00 0.00
7:35 pm 19:35 Sunny 82 28 72 22 70 70 S 9 15 29.83 1010 10 16 0.00 0.00
7:55 pm 19:55 Sunny 82 28 72 22 70 70 S 10 17 29.83 1010 10 16 0.00 0.00
8:15 pm 20:15 Sunny 82 28 72 22 70 70 S 10 17 29.83 1010 10 16 0.00 0.00
8:35 pm 20:35 Sunny 81 27 72 22 74 74 S 12 19 29.83 1010 10 16 0.00 0.00
8:55 pm 20:55 Sunny 81 27 72 22 74 74 SSE 12 19 29.83 1010 10 16 0.00 0.00
9:15 pm 21:15 Clear 79 26 70 21 74 74 SSE 10 17 29.83 1010 10 16 0.00 0.00
9:35 pm 21:35 Clear 79 26 70 21 74 74 SSE 10 17 29.83 1010 10 16 0.00 0.00
9:55 pm 21:55 Clear 79 26 70 21 74 74 SSE 13 20 29.83 1010 10 16 0.00 0.00
10:15 pm 22:15 Clear 79 26 70 21 74 74 SSE 12 19 29.83 1010 10 16 0.00 0.00
10:35 pm 22:35 Clear 75 24 70 21 83 83 SSE 10 17 29.83 1010 10 16 0.00 0.00
10:55 pm 22:55 Clear 75 24 70 21 83 83 S 10 17 29.83 1010 10 16 0.00 0.00
11:15 pm 23:15 Clear 75 24 70 21 83 83 S 10 17 29.83 1010 10 16 0.00 0.00
11:35 pm 23:35 Clear 75 24 70 21 83 83 SSE 8 13 29.83 1010 10 16 0.00 0.00
11:55 pm 23:55 Clear 75 24 68 20 78 78 SE 7 11 29.83 1010 10 16 0.00 0.00

Powered by AerisWeather